Location: Asheville, NC
(35.6000°N, 82.5500°W)
Time: 23:28:46
(UTC-04:00)

RS-15 - Pass Details

Date: 09 January 2018
Orbit: 1889 x 2156 km, 64.8° (Epoch: 24 April)

Event Time Altitude Azimuth Distance (km) Brightness Sun altitude
Rises 21:48:08 0° 320° (NW) 5,511 10.8 -50.8°
Reaches altitude 10° 21:52:18 10° 309° (NW) 4,465 10.3 -51.6°
Maximum altitude 22:00:59 26° 258° (WSW) 3,247 9.4 -53.4°
Drops below altitude 10° 22:09:26 10° 207° (SSW) 4,302 9.9 -55.1°
Sets 22:13:25 0° 195° (SSW) 5,273 10.3 -55.8°
